SCP
0 0 0 0 0 0 0 0 0 0 0 0 0 0 0 0 0 0 0 0 0 0 0 0 0 0 0 0 0 0 0 0 0 0 0 0 0 0
0 0 0 0 0 0 0 0 0 0 0 0 0 0 0 0 0 0 0 0 0 0 0 0 0 0 0 0 0 0 0 0 0 0 0 0 0 0
0 0 0 0 0 0 0 0 0 0 0 0 0 0 0 0 0 0 0 0 0 0 0 0 0 0 0 0 0 0 0 0 0 0 0 0 0 0
0 0 0 0 0 0 0 0 0 0 0 0 0 0 0 0 0 0 0 0 0 0 0 0 0 0 0 0 0 0 0 0 0 0 0 0 0 0
0 0 0 0 0 0 0 0 0 0 0 0 0 0 0 0 0 0 0 0 0 0 0 0 0 0 0 0 0 0 0 0 0 0 0 0 0 0
0 0 0 0 0 0 0 0 0 0 0 0 0 0 0 0 0 0 0 0 0 0 0 0 0 0 0 0 0 0 0 0 0 0 0 0 0 0
0 0 0 0 0 0 0 0 0 0 0 0 0 0 0 0 0 0 0 0 0 0 0 0 0 0 0 0 0 0 0 0 0 0 0 0 0 0
0 0 0 0 0 0 0 0 0 0 0 0 0 0 0 0 0 0 0 0 0 0 0 0 0 0 0 0 0 0 0 0 0 0 0 0 0 0
0 0 0 0 0 0 0 0 0 0 0 0 0 0 0 0 0 0 0 0 0 0 0 0 0 0 0 0 0 0 0 0 0 0 0 0 0 0
0 0 0 0 0 0 0 0 0 0 0 0 0 0 0 0 0 0 0 0 0 0 0 0 0 0 0 0 0 0 0 0 0 0 0 0 0 0
0 0 0 0 0 0 0 0 0 0 0 0 0 0 0 0 0 0 0 0 0 0 0 0 0 0 0 0 0 0 0 0 0 0 0 0 0 0
0 0 0 0 0 0 0 0 0 0 0 0 0 0 0 0 0 0 0 0 0 0 0 0 0 0 0 0 0 0 0 0 0 0 0 0 0 0
0 0 0 0 0 0 0 0 0 0 0 0 0 0 0 0 0 0 0 0 0 0 0 0 0 0 0 0 0 0 0 0 0 0 0 0 0 0
0 0 0 0 0 0 0 0 0 0 0 0 0 0 0 0 0 0 0 0 0 0 0 0 0 0 0 0 0 0 0 0 0 0 0 -0 0 0
0 0 0 0 0 0 0 0 0 0 0 0 0 0 0 0 0 0 0 0 -0 0 0 0 0 0 0 0 0 0 0 0 0 0 0 0 0 0
0 0 0 0 0 0 0 0 0 0 0 0 0 0 0 0 0 0 0 0 0 0 0 0 0 0 0 0 0 0 0 0 0 0 0 0 0 0
0 0 0 0 0 0 0 0 0 0 0 -0 0 0 0 0 0 0 0 0 0 0 0 0 0 0 0 0 0 0 0 0 0 0 0 0 0 0
0 0 0 0 0 0 -0 -0 0 0 0 0 0 0 0 0 0 0 0 0 0 0 0 0 0 0 0 0 0 0 0 0 0 0 0 0 0 0
0 0 0 0 0 0 0 -0 -0 0 0 0 0 -0 -0 -0 -0 0 0 0 0 0 0 0 0 0 0 0 0 -0 0 0 0 0 0 0 0 0
0 0 0 0 0 0 0 0 0 0 0 0 0 -0 -0 0 0 0 0 0 0 0 0 0 0 0 0 0 0 0 0 0 0 0 0 0 0 -0
0 0 0 0 0 0 0 0 0 0 0 -0 -0 -0 0 0 0 0 0 0 0 0 0 0 0 0 0 0 0 0 0 -0 0 0 0 0 0 0
0 -0 0 0 0 0 0 0 0 0 0 0 0 -0 0 -0 0 -0 0 0 0 0 0 0 0 0 0 0 0 0 0 0 -0 -0 -0 0 0 0
-0 -0 0 0 0 0 0 0 0 0 0 0 0 0 0 0 0 -0 0 0 0 0 0 0 0 0 0 0 0 0 0 0 0 0 0 -0 -0 -0
Wind_Speed_500mb
54 57 60 65 69 68 71 71 71 63 78 74 71 66 59 54 65 63 79 84 70 65 58 57 56 53 51 47 45 43 43 42 40 39 40 44 41 38
50 54 55 58 59 60 63 68 80 88 65 76 61 50 59 56 51 61 67 78 79 71 63 66 61 60 52 46 44 43 42 43 45 41 42 44 45 45
40 41 42 42 43 45 49 49 50 69 70 76 73 74 40 46 54 51 56 68 70 74 71 73 68 59 48 43 43 42 41 42 42 41 40 43 45 43
31 33 32 32 33 33 33 35 33 33 51 50 45 47 50 38 43 49 49 54 70 72 77 77 70 56 47 44 43 42 38 36 36 37 39 39 37 36
35 38 42 42 36 33 33 33 28 31 30 30 47 44 46 47 50 50 47 49 56 60 68 69 67 54 53 50 43 42 39 35 31 28 30 30 31 31
32 35 35 36 37 36 34 32 32 28 30 34 36 42 45 50 53 65 78 76 65 68 71 74 64 52 52 51 45 41 37 32 27 19 17 19 24 24
36 36 38 32 33 31 31 31 30 33 32 32 36 37 38 41 49 59 59 64 64 67 70 75 66 69 56 52 44 39 37 32 22 18 17 20 21 21
37 36 37 34 36 36 36 35 33 35 33 29 33 37 37 34 33 49 72 80 69 77 82 82 84 82 75 55 50 44 38 27 26 20 20 21 19 19
41 40 40 39 44 38 43 45 42 33 34 34 33 34 33 29 32 31 40 64 69 72 85 89 79 88 78 56 47 44 41 33 28 24 21 20 17 15
47 41 46 39 41 44 41 38 35 29 32 34 35 32 30 31 34 34 35 43 43 73 78 63 74 83 74 67 54 52 41 35 31 24 21 19 15 15
49 44 44 45 46 42 46 48 48 42 32 37 39 36 36 33 31 32 35 35 53 65 58 63 65 74 85 68 55 55 48 40 32 21 17 13 11 8
39 43 44 48 47 52 57 59 59 57 53 46 39 45 43 38 35 35 33 36 39 45 52 62 50 48 41 59 62 53 46 44 32 23 16 14 11 6
57 55 57 59 59 59 61 68 72 70 69 67 62 54 49 48 46 44 45 43 46 47 55 55 57 52 42 66 60 53 55 43 35 25 19 16 13 8
56 58 58 53 51 52 49 50 50 49 54 63 66 54 46 45 47 52 52 52 55 55 54 57 61 67 55 62 63 64 51 37 32 26 25 22 17 16
44 44 48 49 45 42 36 34 35 37 31 24 30 38 42 45 42 37 39 40 45 42 60 49 59 69 54 63 69 63 53 43 35 25 28 24 22 22
38 47 55 70 41 42 28 25 23 14 18 26 26 24 27 26 28 31 35 33 31 40 38 45 56 62 53 49 44 51 47 46 39 28 31 28 28 29
35 37 48 59 62 66 44 26 18 22 25 27 28 26 22 26 30 28 31 33 41 53 65 63 58 61 42 44 39 34 44 38 22 37 31 26 24 26
30 32 40 44 46 45 57 44 34 29 32 24 14 14 15 18 34 31 35 36 58 62 67 57 60 43 56 50 41 37 39 36 30 29 29 29 25 22
27 30 35 34 32 36 38 35 46 47 47 37 32 22 21 15 9 5 48 62 70 72 53 59 60 66 61 55 44 39 36 37 39 29 30 25 20 21
29 28 31 33 35 37 23 30 18 23 27 26 35 39 13 5 4 11 54 68 60 52 61 52 46 39 45 49 52 42 34 34 36 36 33 25 22 22
34 31 31 31 35 31 24 26 21 20 26 30 28 27 29 27 20 30 35 44 60 43 47 45 42 35 29 30 45 42 39 35 28 27 24 22 22 18
46 40 31 28 29 29 27 21 20 21 25 27 26 20 20 27 26 37 44 46 33 29 41 47 41 27 34 36 43 47 44 37 29 24 22 19 15 15
52 45 39 32 25 26 22 20 21 22 21 19 16 15 14 16 23 24 25 22 35 40 49 43 33 29 31 34 34 37 36 33 27 24 23 23 20 22
Wind_Direction_500mb
284 287 285 284 282 280 275 267 268 261 252 255 253 251 247 252 258 258 248 247 240 243 233 237 235 240 244 249 251 250 250 253 255 260 250 259 262 266
289 288 289 293 291 286 284 280 272 266 259 268 261 259 264 256 261 255 251 247 240 240 236 234 235 234 237 240 242 239 241 249 257 254 256 255 259 263
304 301 302 304 306 300 297 297 301 293 272 270 252 257 245 267 262 265 254 249 240 237 230 230 232 229 230 234 235 237 242 250 254 254 252 255 259 264
314 313 317 317 320 321 320 323 303 286 292 285 280 272 255 261 263 264 260 247 240 236 231 234 224 222 225 233 233 237 243 241 244 248 253 259 261 260
308 309 312 315 317 317 319 316 313 308 311 267 273 260 269 264 264 250 251 247 247 231 223 227 218 224 229 235 227 235 236 237 240 247 259 258 254 252
314 315 318 318 312 314 315 314 311 308 299 285 280 268 264 265 257 261 254 252 240 226 226 215 219 227 235 224 220 231 229 225 227 236 248 259 251 247
311 313 314 309 313 311 307 306 303 303 304 297 284 280 273 272 263 268 248 231 222 232 229 229 240 232 220 220 224 217 214 211 214 233 256 264 251 244
320 308 310 319 308 308 305 309 294 285 289 289 291 276 281 270 269 263 252 244 233 231 228 243 241 237 232 225 222 205 207 206 218 237 260 267 243 243
315 319 305 307 305 304 309 305 298 293 281 284 286 281 275 279 275 269 255 248 249 241 232 230 232 223 218 221 213 202 212 215 227 236 256 243 231 232
310 306 304 303 300 303 306 306 302 297 280 275 284 279 278 282 267 267 268 259 255 250 243 247 235 227 228 231 215 195 202 216 219 231 235 226 228 235
307 295 295 300 296 291 293 297 299 298 288 278 277 269 269 271 264 255 252 255 249 239 229 236 232 232 233 220 206 184 191 207 207 211 200 206 205 231
315 304 294 298 294 290 289 288 285 285 286 286 282 273 265 260 258 256 255 255 249 251 256 232 238 228 213 213 180 185 187 193 195 190 188 186 194 200
317 313 308 306 300 292 284 281 281 283 277 278 281 284 268 259 255 255 255 255 257 259 261 239 224 223 183 176 181 183 187 190 191 189 184 184 195 203
319 317 316 315 311 304 296 295 292 288 280 270 269 270 264 258 259 260 255 255 259 261 264 234 221 201 171 175 177 182 186 192 193 192 190 189 202 236
337 347 345 319 304 307 304 301 305 298 289 273 267 269 270 266 261 251 258 254 250 260 240 223 218 174 175 176 179 182 183 191 189 199 198 200 212 228
27 17 22 25 12 1 334 319 318 294 309 313 298 294 291 262 256 251 240 240 228 242 228 191 169 174 166 173 166 183 189 188 194 193 197 209 216 223
22 24 17 19 22 26 21 17 357 350 328 311 297 284 276 262 249 240 227 235 219 168 175 168 161 172 176 179 170 173 180 190 188 195 198 206 221 229
4 9 13 12 11 17 29 24 14 23 12 346 320 302 273 269 254 238 226 220 197 163 156 169 168 166 170 165 170 171 181 181 178 184 204 217 231 223
19 12 9 11 7 12 10 30 39 34 29 24 18 334 311 312 246 100 210 175 157 160 166 168 162 160 156 153 159 170 175 176 183 190 202 219 232 229
22 17 8 7 5 3 360 355 17 26 17 24 35 32 44 122 33 174 126 140 157 145 154 156 159 167 174 167 163 171 180 179 193 196 205 218 218 213
2 3 9 13 17 27 36 30 27 28 34 27 29 47 52 67 116 150 156 150 156 155 153 159 155 162 172 180 171 162 167 178 194 212 219 217 217 218
12 2 354 354 8 11 10 35 46 53 38 36 37 48 70 83 123 128 131 148 158 157 170 161 158 167 172 174 178 173 172 179 189 195 195 204 220 231
16 11 4 3 9 20 23 29 33 34 34 40 43 55 79 95 115 134 140 163 160 142 152 151 155 171 178 180 179 173 175 176 188 199 210 212 232 241
Wind_Speed_850mb
54 57 60 65 69 68 71 71 71 63 78 74 71 66 59 54 65 63 79 84 70 65 58 57 56 53 51 47 45 43 43 42 40 39 40 44 41 38
50 54 55 58 59 60 63 68 80 88 65 76 61 50 59 56 51 61 67 78 79 71 63 66 61 60 52 46 44 43 42 43 45 41 42 44 45 45
40 41 42 42 43 45 49 49 50 69 70 76 73 74 40 46 54 51 56 68 70 74 71 73 68 59 48 43 43 42 41 42 42 41 40 43 45 43
31 33 32 32 33 33 33 35 33 33 51 50 45 47 50 38 43 49 49 54 70 72 77 77 70 56 47 44 43 42 38 36 36 37 39 39 37 36
35 38 42 42 36 33 33 33 28 31 30 30 47 44 46 47 50 50 47 49 56 60 68 69 67 54 53 50 43 42 39 35 31 28 30 30 31 31
32 35 35 36 37 36 34 32 32 28 30 34 36 42 45 50 53 65 78 76 65 68 71 74 64 52 52 51 45 41 37 32 27 19 17 19 24 24
36 36 38 32 33 31 31 31 30 33 32 32 36 37 38 41 49 59 59 64 64 67 70 75 66 69 56 52 44 39 37 32 22 18 17 20 21 21
37 36 37 34 36 36 36 35 33 35 33 29 33 37 37 34 33 49 72 80 69 77 82 82 84 82 75 55 50 44 38 27 26 20 20 21 19 19
41 40 40 39 44 38 43 45 42 33 34 34 33 34 33 29 32 31 40 64 69 72 85 89 79 88 78 56 47 44 41 33 28 24 21 20 17 15
47 41 46 39 41 44 41 38 35 29 32 34 35 32 30 31 34 34 35 43 43 73 78 63 74 83 74 67 54 52 41 35 31 24 21 19 15 15
49 44 44 45 46 42 46 48 48 42 32 37 39 36 36 33 31 32 35 35 53 65 58 63 65 74 85 68 55 55 48 40 32 21 17 13 11 8
39 43 44 48 47 52 57 59 59 57 53 46 39 45 43 38 35 35 33 36 39 45 52 62 50 48 41 59 62 53 46 44 32 23 16 14 11 6
57 55 57 59 59 59 61 68 72 70 69 67 62 54 49 48 46 44 45 43 46 47 55 55 57 52 42 66 60 53 55 43 35 25 19 16 13 8
56 58 58 53 51 52 49 50 50 49 54 63 66 54 46 45 47 52 52 52 55 55 54 57 61 67 55 62 63 64 51 37 32 26 25 22 17 16
44 44 48 49 45 42 36 34 35 37 31 24 30 38 42 45 42 37 39 40 45 42 60 49 59 69 54 63 69 63 53 43 35 25 28 24 22 22
38 47 55 70 41 42 28 25 23 14 18 26 26 24 27 26 28 31 35 33 31 40 38 45 56 62 53 49 44 51 47 46 39 28 31 28 28 29
35 37 48 59 62 66 44 26 18 22 25 27 28 26 22 26 30 28 31 33 41 53 65 63 58 61 42 44 39 34 44 38 22 37 31 26 24 26
30 32 40 44 46 45 57 44 34 29 32 24 14 14 15 18 34 31 35 36 58 62 67 57 60 43 56 50 41 37 39 36 30 29 29 29 25 22
27 30 35 34 32 36 38 35 46 47 47 37 32 22 21 15 9 5 48 62 70 72 53 59 60 66 61 55 44 39 36 37 39 29 30 25 20 21
29 28 31 33 35 37 23 30 18 23 27 26 35 39 13 5 4 11 54 68 60 52 61 52 46 39 45 49 52 42 34 34 36 36 33 25 22 22
34 31 31 31 35 31 24 26 21 20 26 30 28 27 29 27 20 30 35 44 60 43 47 45 42 35 29 30 45 42 39 35 28 27 24 22 22 18
46 40 31 28 29 29 27 21 20 21 25 27 26 20 20 27 26 37 44 46 33 29 41 47 41 27 34 36 43 47 44 37 29 24 22 19 15 15
52 45 39 32 25 26 22 20 21 22 21 19 16 15 14 16 23 24 25 22 35 40 49 43 33 29 31 34 34 37 36 33 27 24 23 23 20 22
Wind_Direction_850mb
284 287 285 284 282 280 275 267 268 261 252 255 253 251 247 252 258 258 248 247 240 243 233 237 235 240 244 249 251 250 250 253 255 260 250 259 262 266
289 288 289 293 291 286 284 280 272 266 259 268 261 259 264 256 261 255 251 247 240 240 236 234 235 234 237 240 242 239 241 249 257 254 256 255 259 263
304 301 302 304 306 300 297 297 301 293 272 270 252 257 245 267 262 265 254 249 240 237 230 230 232 229 230 234 235 237 242 250 254 254 252 255 259 264
314 313 317 317 320 321 320 323 303 286 292 285 280 272 255 261 263 264 260 247 240 236 231 234 224 222 225 233 233 237 243 241 244 248 253 259 261 260
308 309 312 315 317 317 319 316 313 308 311 267 273 260 269 264 264 250 251 247 247 231 223 227 218 224 229 235 227 235 236 237 240 247 259 258 254 252
314 315 318 318 312 314 315 314 311 308 299 285 280 268 264 265 257 261 254 252 240 226 226 215 219 227 235 224 220 231 229 225 227 236 248 259 251 247
311 313 314 309 313 311 307 306 303 303 304 297 284 280 273 272 263 268 248 231 222 232 229 229 240 232 220 220 224 217 214 211 214 233 256 264 251 244
320 308 310 319 308 308 305 309 294 285 289 289 291 276 281 270 269 263 252 244 233 231 228 243 241 237 232 225 222 205 207 206 218 237 260 267 243 243
315 319 305 307 305 304 309 305 298 293 281 284 286 281 275 279 275 269 255 248 249 241 232 230 232 223 218 221 213 202 212 215 227 236 256 243 231 232
310 306 304 303 300 303 306 306 302 297 280 275 284 279 278 282 267 267 268 259 255 250 243 247 235 227 228 231 215 195 202 216 219 231 235 226 228 235
307 295 295 300 296 291 293 297 299 298 288 278 277 269 269 271 264 255 252 255 249 239 229 236 232 232 233 220 206 184 191 207 207 211 200 206 205 231
315 304 294 298 294 290 289 288 285 285 286 286 282 273 265 260 258 256 255 255 249 251 256 232 238 228 213 213 180 185 187 193 195 190 188 186 194 200
317 313 308 306 300 292 284 281 281 283 277 278 281 284 268 259 255 255 255 255 257 259 261 239 224 223 183 176 181 183 187 190 191 189 184 184 195 203
319 317 316 315 311 304 296 295 292 288 280 270 269 270 264 258 259 260 255 255 259 261 264 234 221 201 171 175 177 182 186 192 193 192 190 189 202 236
337 347 345 319 304 307 304 301 305 298 289 273 267 269 270 266 261 251 258 254 250 260 240 223 218 174 175 176 179 182 183 191 189 199 198 200 212 228
27 17 22 25 12 1 334 319 318 294 309 313 298 294 291 262 256 251 240 240 228 242 228 191 169 174 166 173 166 183 189 188 194 193 197 209 216 223
22 24 17 19 22 26 21 17 357 350 328 311 297 284 276 262 249 240 227 235 219 168 175 168 161 172 176 179 170 173 180 190 188 195 198 206 221 229
4 9 13 12 11 17 29 24 14 23 12 346 320 302 273 269 254 238 226 220 197 163 156 169 168 166 170 165 170 171 181 181 178 184 204 217 231 223
19 12 9 11 7 12 10 30 39 34 29 24 18 334 311 312 246 100 210 175 157 160 166 168 162 160 156 153 159 170 175 176 183 190 202 219 232 229
22 17 8 7 5 3 360 355 17 26 17 24 35 32 44 122 33 174 126 140 157 145 154 156 159 167 174 167 163 171 180 179 193 196 205 218 218 213
2 3 9 13 17 27 36 30 27 28 34 27 29 47 52 67 116 150 156 150 156 155 153 159 155 162 172 180 171 162 167 178 194 212 219 217 217 218
12 2 354 354 8 11 10 35 46 53 38 36 37 48 70 83 123 128 131 148 158 157 170 161 158 167 172 174 178 173 172 179 189 195 195 204 220 231
16 11 4 3 9 20 23 29 33 34 34 40 43 55 79 95 115 134 140 163 160 142 152 151 155 171 178 180 179 173 175 176 188 199 210 212 232 241